CAPE
0 0 0 1 2 8 3 31 4 15 15 20 8 6 15 8 31 9 4 3 3 12 12 12 10 12 15 19 10 11 6 4 8 11 4 15 15 35 4 20 8 0 0
0 0 0 5 6 8 10 8 10 13 25 19 7 9 3 6 6 14 5 5 5 4 12 6 5 4 9 5 2 8 10 14 6 7 0 0 16 39 17 0 8 7 1
0 0 0 4 2 5 3 6 10 12 10 4 10 7 8 9 6 7 3 10 8 8 8 3 2 2 1 2 4 10 12 20 21 27 5 0 13 21 37 38 10 3 4
0 0 0 4 5 6 10 7 7 2 9 12 8 4 11 8 6 1 3 1 12 7 4 2 0 0 0 1 9 7 6 9 10 1 0 3 0 11 20 17 16 16 15
0 0 0 5 8 4 6 7 5 6 6 7 6 7 6 7 8 3 7 6 6 7 5 1 0 0 0 3 7 8 5 1 0 0 0 1 3 9 17 11 6 9 7
0 0 0 2 5 4 5 5 4 5 4 3 3 3 5 3 3 5 6 3 4 1 3 2 0 0 0 3 2 2 0 0 0 0 0 0 3 14 33 23 26 3 7
0 0 0 0 2 3 1 3 1 2 2 2 1 0 1 0 0 1 2 2 1 0 0 0 0 0 0 0 0 0 0 0 0 0 0 0 0 8 10 6 14 33 2
0 0 0 0 1 1 2 0 1 1 1 0 0 0 0 0 0 0 0 0 0 0 0 0 0 0 0 0 0 0 0 0 0 0 0 0 7 7 6 4 6 10 24
0 0 0 0 0 0 1 0 0 0 0 0 0 0 0 0 0 0 0 0 0 0 0 0 0 0 0 0 0 0 0 0 0 0 0 0 4 6 2 2 5 3 6
0 0 0 0 0 0 0 0 0 0 0 0 0 0 0 0 0 0 0 0 0 0 0 0 0 0 0 0 0 0 0 0 0 0 0 0 0 6 3 1 0 4 6
0 0 0 0 0 0 0 0 0 0 0 0 0 0 0 0 0 0 0 0 0 0 0 0 0 0 0 0 0 0 0 0 0 0 0 0 0 0 1 0 0 0 2
0 0 0 0 0 0 0 0 0 0 0 0 0 0 0 0 0 0 0 0 0 0 0 0 0 0 0 0 0 0 0 0 0 0 0 0 0 0 0 0 0 0 0
0 0 0 0 0 0 0 0 0 0 0 0 0 0 0 0 0 0 0 0 0 0 0 0 0 0 0 0 0 0 0 0 0 0 0 0 0 0 0 0 0 0 1
0 0 0 0 0 0 0 0 0 0 0 0 0 0 0 0 0 0 0 0 0 0 0 0 0 0 0 0 0 0 0 0 0 0 0 0 0 0 0 0 0 0 0
0 0 0 0 0 0 0 0 0 0 0 0 0 0 0 0 0 0 0 0 0 0 0 0 0 0 0 0 0 0 0 0 0 0 0 0 0 0 0 0 0 0 0
0 0 0 0 0 0 0 0 0 0 0 0 0 0 0 0 0 0 0 0 0 0 0 0 0 0 0 0 0 0 0 0 0 0 0 0 0 0 0 0 0 0 0
0 0 0 0 0 0 0 0 0 0 0 0 0 0 0 0 0 0 0 0 0 0 0 0 0 0 0 0 0 0 0 0 0 0 0 0 0 0 0 0 0 0 0
0 0 0 0 0 0 0 0 0 0 0 0 0 0 0 0 0 0 0 0 0 0 0 0 0 0 0 0 0 0 0 0 0 0 0 0 0 0 0 0 0 0 0
0 0 0 0 0 0 0 0 0 0 0 0 0 0 0 0 0 0 0 0 0 0 0 0 0 0 0 0 0 0 0 0 0 0 0 0 0 0 0 0 0 0 0
0 0 0 0 0 0 0 0 0 0 0 0 0 0 0 0 0 0 0 0 0 0 0 0 0 0 0 0 0 0 0 0 0 0 0 0 0 0 0 0 0 0 0
0 0 0 0 0 0 0 0 0 0 0 0 0 0 0 0 0 0 0 0 0 0 0 0 0 0 0 0 0 0 0 0 0 0 0 0 0 0 0 0 0 0 0
0 0 0 0 0 0 0 0 0 0 0 0 0 0 0 0 0 0 0 0 0 0 0 0 0 0 0 0 0 0 0 0 0 0 0 0 0 0 0 0 0 0 0
0 0 0 0 0 0 0 0 0 0 0 0 0 0 0 0 0 0 0 0 0 0 0 0 0 0 0 0 0 0 0 0 0 0 0 0 0 0 0 0 0 0 0
0 0 0 0 0 0 0 0 0 0 0 0 0 0 0 0 0 0 0 0 0 0 0 0 0 0 0 0 0 0 0 0 0 0 0 0 0 0 0 0 0 0 0
0 0 0 0 0 0 0 0 0 0 0 0 0 0 0 0 0 0 0 0 0 0 0 0 0 0 0 0 0 0 0 0 0 0 0 0 0 0 0 0 0 0 0
0 0 0 0 0 0 0 0 0 0 0 0 0 0 0 0 0 0 0 0 0 0 0 0 0 0 0 0 0 0 0 0 0 0 0 0 0 0 0 0 0 0 0
CIN
-0 -0 -1 -0 -0 -1 -0 -4 -0 -5 -1 -1 -1 -2 -3 -3 -0 -2 -0 -1 -1 -1 -0 -0 -1 -1 -0 -0 -1 -0 -2 -0 -0 -1 -0 -4 -1 -1 -0 -0 -0 -0 -0
-0 -0 -0 -1 -0 -0 -1 -2 -1 -1 -3 -2 -1 -1 -1 -0 -0 -4 -1 -0 -0 -0 -0 -0 -0 -1 -0 -1 -1 -0 -0 -1 -0 -0 -0 -0 -10 -0 -0 -0 -0 -1 -0
-0 -0 -0 -1 -0 -1 -0 -2 -0 -0 -2 -0 -0 -0 -1 -3 -1 -1 -0 -0 -1 -0 -0 -0 -0 -1 -0 -1 -0 -0 -0 -1 -0 -1 -2 -0 -10 -1 -0 -1 -0 -1 -0
-0 -0 -0 -0 -0 -1 -0 -0 -0 -2 -0 -0 -0 -0 -0 -0 -1 -0 -0 -2 -0 -0 -0 -0 -0 -0 -0 -1 -0 -0 -0 -0 -1 -8 -0 -4 -0 -2 -2 -3 -3 -1 -0
-0 -0 -0 -0 -0 -0 -0 -0 -0 -0 -0 -0 -0 -0 -0 -0 -0 -0 -0 -1 -0 -0 -0 -0 -0 -0 -0 -0 -0 -1 -0 -0 -0 -0 -0 -7 -4 -2 -2 -1 -1 -2 -4
-0 -0 -0 -1 -1 -0 -1 -1 -0 -0 -0 -0 -0 -0 -0 -0 -0 -0 -0 -0 -0 -0 -0 -1 -0 -0 -0 -0 -0 -0 -0 -0 -0 -0 -0 -0 -5 -2 -0 -2 -0 -0 -0
-0 -0 -0 -0 -0 -0 -0 -0 -0 -1 -0 -0 -0 -0 -0 -0 -0 -0 -0 -0 -0 -0 -0 -0 -0 -0 -0 -0 -0 -0 -0 -0 -0 -0 -0 -0 -0 -0 -0 -1 -1 -1 -1
-0 -0 -0 -0 -0 -0 -0 -0 -0 -0 -0 -0 -0 -0 -0 -0 -0 -0 -0 -0 -0 -0 -0 -0 -0 -0 -0 -0 -0 -0 -0 -0 -0 -0 -0 -0 -0 -0 -1 -0 -1 -1 -1
-0 -0 -0 -0 -0 -0 -0 -0 -0 -0 -0 -0 -0 -0 -0 -0 -0 -0 -0 -0 -0 -0 -0 -0 -0 -0 -0 -0 -0 -0 -0 -0 -0 -0 -0 -0 -0 -0 -0 -0 -0 -1 -1
-0 -0 -0 -0 -0 -0 -0 -0 -0 -0 -0 -0 -0 -0 -0 -0 -0 -0 -0 -0 -0 -0 -0 -0 -0 -0 -0 -0 -0 -0 -0 -0 -0 -0 -0 -0 -0 -0 -0 -0 -0 -1 -0
-0 -0 -0 -0 -0 -0 -0 -0 -0 -0 -0 -0 -0 -0 -0 -0 -0 -0 -0 -0 -0 -0 -0 -0 -0 -0 -0 -0 -0 -0 -0 -0 -0 -0 -0 -0 -0 -0 -0 -0 -0 -0 -0
-0 -0 -0 -0 -0 -0 -0 -0 -0 -0 -0 -0 -0 -0 -0 -0 -0 -0 -0 -0 -0 -0 -0 -0 -0 -0 -0 -0 -0 -0 -0 -0 -0 -0 -0 -0 -0 -0 -0 -0 -0 -1 -0
-0 -0 -0 -0 -0 -0 -0 -0 -0 -0 -0 -0 -0 -0 -0 -0 -0 -0 -0 -0 -0 -0 -0 -0 -0 -0 -0 -0 -0 -0 -0 -0 -0 -0 -0 -0 -0 -0 -0 -0 -0 -0 -0
-0 -0 -0 -0 -0 -0 -0 -0 -0 -0 -0 -0 -0 -0 -0 -0 -0 -0 -0 -0 -0 -0 -0 -0 -0 -0 -0 -0 -0 -0 -0 -0 -0 -0 -0 -0 -0 -0 -0 -0 -0 -0 -0
-0 -0 -0 -0 -0 -0 -0 -0 -0 -0 -0 -0 -0 -0 -0 -0 -0 -0 -0 -0 -0 -0 -0 -0 -0 -0 -0 -0 -0 -0 -0 -0 -0 -0 -0 -0 -0 -0 -0 -0 -0 -0 -0
-0 -0 -0 -0 -0 -0 -0 -0 -0 -0 -0 -0 -0 -0 -0 -0 -0 -0 -0 -0 -0 -0 -0 -0 -0 -0 -0 -0 -0 -0 -0 -0 -0 -0 -0 -0 -0 -0 -0 -0 -0 -0 -0
-0 -0 -0 -0 -0 -0 -0 -0 -0 -0 -0 -0 -0 -0 -0 -0 -0 -0 -0 -0 -0 -0 -0 -0 -0 -0 -0 -0 -0 -0 -0 -0 -0 -0 -0 -0 -0 -0 -0 -0 -0 -0 -0
-0 -0 -0 -0 -0 -0 -0 -0 -0 -0 -0 -0 -0 -0 -0 -0 -0 -0 -0 -0 -0 -0 -0 -0 -0 -0 -0 -0 -0 -0 -0 -0 -0 -0 -0 -0 -0 -0 -0 -0 -0 -0 -0
-0 -0 -0 -0 -0 -0 -0 -0 -0 -0 -0 -0 -0 -0 -0 -0 -0 -0 -0 -0 -0 -0 -0 -0 -0 -0 -0 -0 -0 -0 -0 -0 -0 -0 -0 -0 -0 -0 -0 -0 -0 -0 -0
-0 -0 -0 -0 -0 -0 -0 -0 -0 -0 -0 -0 -0 -0 -0 -0 -0 -0 -0 -0 -0 -0 -0 -0 -0 -0 -0 -0 -0 -0 -0 -0 -0 -0 -0 -0 -0 -0 -0 -0 -0 -0 -0
-0 -0 -0 -0 -0 -0 -0 -0 -0 -0 -0 -0 -0 -0 -0 -0 -0 -0 -0 -0 -0 -0 -0 -0 -0 -0 -0 -0 -0 -0 -0 -0 -0 -0 -0 -0 -0 -0 -0 -0 -0 -0 -0
-0 -0 -0 -0 -0 -0 -0 -0 -0 -0 -0 -0 -0 -0 -0 -0 -0 -0 -0 -0 -0 -0 -0 -0 -0 -0 -0 -0 -0 -0 -0 -0 -0 -0 -0 -0 -0 -0 -0 -0 -0 -0 -0
-0 -0 -0 -0 -0 -0 -0 -0 -0 -0 -0 -0 -0 -0 -0 -0 -0 -0 -0 -0 -0 -0 -0 -0 -0 -0 -0 -0 -0 -0 -0 -0 -0 -0 -0 -0 -0 -0 -0 -0 -0 -0 -0
-0 -0 -0 -0 -0 -0 -0 -0 -0 -0 -0 -0 -0 -0 -0 -0 -0 -0 -0 -0 -0 -0 -0 -0 -0 -0 -0 -0 -0 -0 -0 -0 -0 -0 -0 -0 -0 -0 -0 -0 -0 -0 -0
-0 -0 -0 -0 -0 -0 -0 -0 -0 -0 -0 -0 -0 -0 -0 -0 -0 -0 -0 -0 -0 -0 -0 -0 -0 -0 -0 -0 -0 -0 -0 -0 -0 -0 -0 -0 -0 -0 -0 -0 -0 -0 -0
-0 -0 -0 -0 -0 -0 -0 -0 -0 -0 -0 -0 -0 -0 -0 -0 -0 -0 -0 -0 -0 -0 -0 -0 -0 -0 -0 -0 -0 -0 -0 -0 -0 -0 -0 -0 -0 -0 -0 -0 -0 -0 -0
Wind_Speed
18 21 20 20 21 21 22 22 22 21 22 23 23 24 24 3 14 6 12 14 16 17 18 18 19 16 18 21 19 19 24 22 23 23 24 21 22 22 19 20 19 19 19
21 21 21 21 22 22 23 24 25 24 23 21 19 18 27 18 6 3 3 12 11 16 16 17 18 18 18 23 24 25 26 26 25 23 24 20 16 24 24 21 21 20 21
22 22 22 23 24 23 24 23 23 23 23 21 20 17 16 15 18 11 7 3 3 4 7 10 13 20 25 25 24 27 28 28 29 29 28 26 26 26 26 26 24 23 22
24 24 24 25 25 25 24 22 23 22 21 19 17 17 16 16 14 15 12 11 11 9 5 1 6 11 1 20 17 23 24 27 24 23 27 28 26 27 26 26 27 26 25
26 25 26 25 25 25 23 23 21 22 20 18 18 17 15 14 13 14 14 13 12 13 13 11 10 11 15 12 10 10 27 29 27 24 25 25 27 27 27 26 26 26 25
26 26 26 25 25 24 23 23 22 20 21 20 18 16 16 15 13 13 13 13 13 13 12 13 13 14 17 18 15 15 15 17 16 16 15 16 26 27 28 27 26 26 25
27 26 25 25 24 24 23 23 21 21 20 19 18 16 16 15 14 13 12 12 11 10 10 10 10 11 13 14 13 13 12 14 14 11 13 12 16 24 25 26 28 27 25
26 26 25 24 24 23 23 22 21 20 20 19 18 17 16 15 14 12 11 10 8 8 9 10 11 12 13 13 12 12 12 14 15 13 11 10 15 20 23 25 24 25 26
25 25 25 24 24 23 22 21 21 20 19 19 18 17 16 15 14 13 10 9 10 10 11 12 12 13 13 12 13 13 14 16 16 15 14 14 16 18 21 23 23 24 24
25 25 24 23 23 23 22 21 20 20 19 19 18 17 16 15 14 13 12 10 10 11 12 12 12 13 12 12 11 11 12 14 14 14 14 13 14 15 16 18 21 24 24
27 25 24 23 23 22 21 21 20 19 19 19 18 17 16 15 14 13 12 11 11 11 12 11 12 12 11 10 10 10 10 12 12 12 12 12 13 14 14 15 15 17 21
27 26 25 23 22 22 21 21 20 20 19 19 18 18 16 15 13 13 12 11 11 11 10 10 9 9 9 9 9 9 10 9 10 10 10 10 11 13 13 13 13 14 15
26 25 24 23 22 21 21 21 21 20 19 19 19 17 16 14 13 12 12 11 11 10 10 9 9 9 9 9 9 9 9 8 8 8 8 8 9 10 12 13 13 12 14
26 25 24 23 22 21 21 22 22 21 20 19 18 17 16 14 13 12 11 10 10 10 9 9 9 8 8 8 9 8 9 9 9 8 7 6 6 7 9 11 11 13 13
24 23 22 22 23 23 24 23 22 21 20 19 18 17 16 14 13 12 11 10 10 10 9 8 8 8 8 8 8 8 8 8 8 9 7 6 6 5 6 8 10 12 13
24 23 23 24 24 24 24 23 22 21 20 19 18 17 15 14 12 11 11 10 9 9 9 8 8 7 7 8 6 7 7 6 6 7 7 7 6 5 5 6 8 10 13
25 24 24 24 23 24 24 24 23 22 21 19 18 16 15 14 12 11 10 10 9 9 9 9 8 9 7 7 5 6 6 5 6 6 7 8 8 7 6 6 7 9 12
25 26 25 24 23 24 24 23 23 22 20 19 18 17 16 15 13 12 11 10 9 9 9 10 10 9 9 9 6 5 5 6 6 7 8 8 9 9 8 8 9 9 11
26 27 27 26 25 24 24 24 23 22 22 21 20 18 17 16 15 13 12 10 9 8 8 9 8 9 7 5 3 3 4 6 7 10 10 10 9 8 9 10 10 10 11
28 28 28 27 26 26 26 26 26 25 24 22 21 20 18 16 15 14 12 10 9 8 7 7 6 7 6 1 3 4 6 10 14 14 18 15 14 12 12 13 13 14 13
29 29 29 28 29 28 30 29 27 26 24 23 22 20 18 17 15 13 11 10 9 7 6 7 7 6 4 11 13 21 20 19 19 17 22 19 17 17 16 16 16 16 17
31 31 31 31 32 33 32 30 28 26 25 23 22 20 18 16 14 13 11 9 7 6 5 6 7 9 12 16 21 24 25 22 20 26 20 21 18 20 20 19 19 18 19
33 33 33 33 34 33 32 31 28 26 24 22 21 19 17 15 13 11 9 8 6 6 5 6 7 7 7 14 16 20 24 22 28 21 24 21 21 25 23 20 21 21 21
34 34 34 34 33 33 32 30 28 27 25 23 20 17 15 13 11 10 8 6 5 5 4 5 7 8 10 9 14 12 12 16 23 25 22 21 23 25 23 23 22 22 23
33 33 33 33 33 31 31 30 28 27 25 22 18 16 14 11 9 8 7 5 4 4 4 5 7 8 8 10 11 14 13 14 14 17 22 24 25 24 23 24 24 22 22
32 31 30 31 31 29 28 28 28 27 24 22 19 16 12 9 6 6 5 4 4 5 5 5 7 8 8 9 11 11 13 17 19 18 20 24 26 29 25 24 24 24 23
Wind_Direction
100 104 90 81 84 73 80 64 63 41 41 56 48 54 46 190 1 314 348 353 2 3 0 359 2 354 1 8 3 359 12 7 11 11 13 0 5 359 0 353 351 348 344
101 99 95 87 93 80 78 86 86 97 106 123 125 117 83 126 178 212 282 352 344 0 355 357 358 0 360 16 12 16 20 15 23 9 12 354 345 7 25 2 354 349 346
100 104 92 103 105 106 116 122 120 124 125 129 132 137 140 138 129 147 161 187 305 310 330 340 344 5 23 24 15 24 28 28 33 35 33 15 18 21 18 17 17 5 349
108 110 114 126 121 126 131 138 135 136 136 141 144 141 141 140 140 137 142 140 140 144 156 232 330 342 296 64 355 11 13 29 15 9 22 33 45 26 16 13 18 17 18
121 119 131 132 128 134 142 140 146 140 146 148 144 145 147 147 148 140 138 137 135 130 127 127 125 124 120 125 116 119 60 48 31 10 10 7 19 24 24 28 24 21 19
123 127 135 137 134 135 139 140 145 149 142 145 147 151 148 150 150 146 143 138 133 131 130 125 121 118 115 113 114 110 111 108 107 103 102 94 55 40 25 32 29 28 26
132 133 137 140 139 138 141 142 145 145 149 150 154 157 155 154 154 153 151 149 148 149 145 141 137 131 125 123 120 118 116 114 113 112 107 107 90 55 46 35 25 24 26
131 139 141 143 143 145 145 148 149 154 151 153 155 158 159 160 158 161 167 172 178 170 159 148 141 133 126 124 123 120 117 110 107 107 117 116 95 71 51 34 32 21 17
138 138 147 149 147 151 153 157 161 162 164 162 159 160 160 165 169 174 186 187 171 157 145 137 133 128 123 119 114 107 102 96 93 93 94 92 81 74 57 38 31 25 22
145 145 146 148 147 155 157 155 157 158 160 162 164 168 177 183 189 187 178 170 158 149 140 134 130 123 119 115 112 111 103 93 88 89 86 85 79 74 70 59 34 8 11
160 156 153 149 149 148 153 156 155 159 167 175 183 188 185 183 180 177 172 166 151 141 137 133 127 122 117 114 113 109 102 90 86 84 80 76 66 65 63 60 56 42 18
165 166 161 155 152 150 153 157 163 172 184 186 179 177 176 174 177 175 166 161 153 144 142 140 139 128 119 112 106 100 91 90 82 79 74 71 63 55 51 49 50 45 35
164 162 162 158 155 152 157 161 170 178 179 179 177 173 171 172 173 164 157 155 150 144 137 134 127 117 112 99 94 86 76 74 72 72 67 62 58 51 43 38 36 36 29
166 165 164 163 159 159 161 169 175 175 176 175 173 171 167 167 163 159 153 151 146 142 139 128 118 110 99 89 78 71 65 59 57 55 54 54 51 44 38 33 29 22 18
167 166 165 164 168 172 174 177 178 177 176 176 174 172 168 162 156 151 151 144 141 132 128 120 107 95 82 73 69 61 55 51 45 42 43 41 39 34 29 26 21 15 10
170 170 171 174 175 175 178 179 180 179 180 179 178 173 164 158 155 151 147 141 135 124 116 104 100 94 87 69 71 58 52 47 41 35 31 25 21 18 13 11 10 8 3
176 174 175 176 174 177 180 181 181 180 180 179 177 171 168 160 157 154 147 142 138 119 107 95 88 78 80 69 64 54 43 34 27 22 18 15 12 8 360 357 356 358 356
178 181 179 175 174 176 177 177 179 178 177 178 178 176 178 173 168 164 159 153 137 113 94 77 64 58 54 49 46 34 22 16 8 9 8 6 8 7 2 353 348 346 346
183 185 185 180 178 176 177 176 177 179 182 185 183 180 177 174 173 168 164 160 140 119 102 80 74 58 55 45 24 331 342 2 11 19 22 13 8 7 3 359 352 343 338
187 187 186 183 182 179 181 185 192 193 193 189 186 183 181 177 173 168 165 160 141 126 116 97 90 73 62 22 290 330 0 25 30 38 22 19 18 15 10 3 356 351 342
189 188 188 185 184 179 189 190 193 190 190 190 188 185 182 178 174 166 164 157 141 133 115 94 83 84 74 45 28 18 24 26 27 30 16 26 22 21 14 4 356 350 345
191 191 190 189 187 187 189 189 192 189 192 191 188 186 180 176 172 167 163 158 136 115 112 98 80 61 50 39 25 18 15 20 24 6 25 17 25 19 10 4 357 349 342
191 189 188 188 188 185 184 187 189 195 196 189 179 178 174 171 170 167 164 155 142 112 100 77 70 66 50 37 34 24 18 19 3 13 5 15 13 2 5 360 356 350 343
193 189 189 187 184 183 180 179 179 180 182 181 174 164 161 150 158 158 158 149 136 110 95 79 58 49 40 30 30 31 26 16 12 6 9 360 357 355 357 355 353 348 345
187 184 183 183 183 179 178 179 180 183 184 181 173 170 164 157 151 149 142 128 115 96 86 65 50 43 38 27 24 21 17 9 3 358 353 357 354 352 353 350 348 346 344
184 179 177 178 181 178 177 179 181 184 184 183 180 178 169 157 142 133 112 93 76 62 58 48 38 32 27 20 15 12 8 6 3 356 349 348 347 351 352 349 349 348 347